Portada
METAR-TAF:

METAR-TAF

Aeropuertos :

Aeropuerto Santiago Pérez Quiroz

Arauca, Colombia

latitud: 07-04N, longitud: 070-44W, altitud: 128 m

Observación

El informe se hizo hace 37 minutos, a las 16:00 UTC
Viento 4 kt del este-sureste
Temperatura 29°C
Humedad 79%
Presión 1011 hPa
Visibilidad 10 km o más
Nubes dispersas a una altura de 1000 ft

METAR: SKUC 221600Z 11004KT 9999 SCT010 29/25 A2986

Hora: 11:37 (16:37 UTC)


TAF: falta

Observaciones y pronósticos meteorológicos de más de 4000 aeropuertos (mensajes METAR y TAF).

Los puntos amarillos y rojos representan las estaciones disponibles.

Ponga el ratón en el punto deseado para ver el nombre de la estación.

Haga clic para ver las observaciones y los pronósticos meteorológicos.

Para cambiar el mapa : haga clic en los botones verdes con una cruz de color negro para hacer un zoom, en el botón verde con un guión para alejar o en las flechas verdes para mapas adyacentes.


METAR-TAF: